Overview Statistics Trail Chart Weather Telemetry Raw packets
 

This is the latest recevied weather packets stored in our database for station/object KC4GS-13. If no packets are shown the sender has not sent any weather packets the latest 10 day(s).

<< 100 101 102 103 104 105 106 >>
Time Temp. Humidity Pressure Rain* Wind** Luminosity Snow
1787869304 26.67° C 89% 1015.9 hPa 0 mm - 12 W/m² -
1787869002 26.67° C 88% 1015.8 hPa 0 mm - 16 W/m² -
1787868696 26.67° C 87% 1016 hPa 0 mm - 19 W/m² -
1787868394 26.67° C 86% 1015.8 hPa 0 mm - 21 W/m² -
1787868090 26.67° C 85% 1015.7 hPa 0 mm - 23 W/m² -
1787867785 27.22° C 84% 1015.9 hPa 0 mm - 26 W/m² -
1787867480 27.22° C 84% 1015.9 hPa 0 mm - 26 W/m² -
1787867175 27.22° C 83% 1015.5 hPa 0 mm - 28 W/m² -
1787866870 27.22° C 83% 1015.5 hPa 0 mm - 32 W/m² -
1787866566 27.22° C 82% 1015.5 hPa 0 mm - 43 W/m² -
1787866264 27.22° C 82% 1015.9 hPa 0 mm - 52 W/m² -
1787865959 27.22° C 82% 1015.8 hPa 0 mm - 66 W/m² -
1787865655 27.78° C 82% 1015.4 hPa 0 mm - 65 W/m² -
1787865354 27.78° C 81% 1015.4 hPa 0 mm - 62 W/m² -
1787865050 27.78° C 80% 1015.4 hPa 0 mm - 51 W/m² -
1787864745 28.33° C 79% 1015.4 hPa 0 mm - 51 W/m² -
1787864445 28.33° C 78% 1015.4 hPa 0 mm - 90 W/m² -
1787864144 28.89° C 78% 1015.2 hPa 0 mm - 489 W/m² -
1787863838 27.78° C 81% 1015 hPa 0 mm - 361 W/m² -
1787863536 27.78° C 83% 1015.4 hPa 0 mm - 338 W/m² -
1787863232 27.78° C 82% 1015.3 hPa 0 mm - 375 W/m² -
1787862928 27.22° C 83% 1015.2 hPa 0 mm - 231 W/m² -
1787862623 26.11° C 85% 1015.2 hPa 0 mm - 195 W/m² -
1787862318 25.56° C 90% 1015.1 hPa 0 mm - 693 W/m² -
1787862014 25° C 93% 1015.3 hPa 0 mm - 629 W/m² -

* Rain latest hour (hover to see other rain measurements)
** Current wind speed in m/s (hover to see current wind gust speed)